OneWeb SL0241

operational
NORAD ID: 48773 Int'l Des: 2021-045 Owner: ONEWEBN Country: UK Constellation: oneweb
LEOCIRCULARPOLARONEWEB_TYPE

About OneWeb SL0241

Description loading...

Live Position

Loading 3D Globe...

Upcoming Passes

Altitude History

Altitude vs Time

uPlot chart will show altitude changes over time

Two-Line Element Set

1 48773U 21045G 25351.86466079 -.00000008 00000-0 -56327-4 0 9990
2 48773 87.8999 295.3962 0001851 64.7791 295.3531 13.15546616220499
Epoch: Dec 17, 2025 • Age: 15 hours

Current Status

Altitude 1204.9 km
Velocity 7.26 km/s
Sub-Earth Point 33.49°N, 36.46°E
Launch Date May 28, 2021
Age 4.5 years
Type internet

Technical Details

Classification Payload
Mass 148.00 kg
Dry Mass 140.00 kg
Total Mass 148.00 kg
Length 1.30 m
Diameter 1.00 m
Span 5.00 m
Shape Trapezoid+2 pan
Manufacturer ONEWUS
Bus Type ARROW
Phase Status In Orbit
Owner/State ONEWEBN/UK

Large Constellations

Loading constellations...